This is the latest recevied weather packets stored in our database for station/object KA9CBS. If no packets are shown the sender has not sent any weather packets the latest 10 day(s).
| Time | Temp. | Humidity | Pressure | Rain* | Wind** | Luminosity | Snow |
|---|---|---|---|---|---|---|---|
| 1787750223 | 21.11° C | 94% | 1018.5 hPa | 0 mm | - | 105 W/m² | - |
| 1787749918 | 21.11° C | 95% | 1018.5 hPa | 0 mm | - | 95 W/m² | - |
| 1787749613 | 21.11° C | 95% | 1018.6 hPa | 0 mm | - | 88 W/m² | - |
| 1787749310 | 20.56° C | 94% | 1018.6 hPa | 0 mm | - | 68 W/m² | - |
| 1787749004 | 20.56° C | 95% | 1018.4 hPa | 0 mm | - | 75 W/m² | - |
| 1787748698 | 20.56° C | 94% | 1018.5 hPa | 0 mm | - | 81 W/m² | - |
| 1787748394 | 20.56° C | 93% | 1018.7 hPa | 0 mm | - | 53 W/m² | - |
| 1787748091 | 20.56° C | 92% | 1018.2 hPa | 0 mm | - | 41 W/m² | - |
| 1787747790 | 21.11° C | 91% | 1018.4 hPa | 0 mm | - | 32 W/m² | - |
| 1787747485 | 21.11° C | 89% | 1018.4 hPa | 0 mm | - | 31 W/m² | - |
| 1787747185 | 21.11° C | 87% | 1018.4 hPa | 0 mm | - | 40 W/m² | - |
| 1787746882 | 21.11° C | 86% | 1018.2 hPa | 0 mm | - | 47 W/m² | - |
| 1787746581 | 21.67° C | 85% | 1018 hPa | 0 mm | - | 39 W/m² | - |
| 1787746275 | 21.67° C | 83% | 1018.2 hPa | 0 mm | - | 27 W/m² | - |
| 1787745974 | 21.67° C | 82% | 1018.2 hPa | 0 mm | - | 16 W/m² | - |
| 1787745669 | 21.67° C | 81% | 1017.9 hPa | 0 mm | - | 10 W/m² | - |
| 1787745362 | 21.67° C | 80% | 1018.2 hPa | 0 mm | - | 1 W/m² | - |
| 1787745061 | 20.56° C | 86% | 1018.2 hPa | 0 mm | - | 1 W/m² | - |
| 1787744757 | 20.56° C | 91% | 1018.3 hPa | 0 mm | - | 0 W/m² | - |
| 1787744448 | 21.11° C | 92% | 1017.7 hPa | 0 mm | - | 5 W/m² | - |
| 1787744143 | 21.11° C | 91% | 1017.6 hPa | 0 mm | - | 3 W/m² | - |
| 1787743839 | 21.11° C | 91% | 1017.6 hPa | 0 mm | - | 1 W/m² | - |
| 1787743538 | 21.11° C | 90% | 1017.2 hPa | 0 mm | - | 1 W/m² | - |
| 1787743234 | 21.11° C | 90% | 1017.4 hPa | 0 mm | - | 0 W/m² | - |
| 1787742931 | 21.11° C | 88% | 1017.2 hPa | 0 mm | - | 0 W/m² | - |
* Rain latest hour (hover to see other rain measurements)
** Current wind speed in m/s (hover to see current wind gust speed)